• En Colombia
  • Lista de países
  • Para 7 días
  • Temperatura del agua
  • El tiempo en el mapa
  • Informadores
  • user-avatar
    Iniciar sesión

    Tiempo cada hora Lezhe

    Hoy, 5 Diciembre, Jueves

    Tiempo Temperatura Precipitaciones Viento Presión Humedad
    00:00 0°C° 0 mm 4 mps 744 mmHg 73%
    01:00 0°C° 0 mm 4 mps 744 mmHg 75%
    02:00 0°C° 0 mm 4 mps 744 mmHg 74%
    03:00 +1°C° 0 mm 4 mps 744 mmHg 73%
    04:00 +1°C° 0 mm 4 mps 743 mmHg 72%
    05:00 +1°C° 0 mm 4 mps 744 mmHg 73%
    06:00 +2°C° 0 mm 3 mps 744 mmHg 73%
    07:00 +2°C° 0 mm 3 mps 744 mmHg 74%
    08:00 +4°C° 0 mm 3 mps 744 mmHg 70%
    09:00 +5°C° 0 mm 3 mps 744 mmHg 66%
    10:00 +8°C° 0 mm 3 mps 744 mmHg 62%
    11:00 +9°C° 0 mm 2 mps 744 mmHg 60%
    12:00 +10°C° 0 mm 2 mps 744 mmHg 58%
    13:00 +12°C° 0 mm 1 mps 744 mmHg 56%
    14:00 +11°C° 0 mm 1 mps 744 mmHg 61%
    15:00 +10°C° 0 mm 1 mps 743 mmHg 66%
    16:00 +9°C° 0 mm 1 mps 743 mmHg 71%
    17:00 +7°C° 0 mm 2 mps 744 mmHg 71%
    18:00 +7°C° 0 mm 2 mps 744 mmHg 72%
    19:00 +7°C° 0 mm 2 mps 744 mmHg 72%
    20:00 +7°C° 0 mm 2 mps 744 mmHg 72%
    21:00 +7°C° 0 mm 2 mps 744 mmHg 72%
    22:00 +7°C° 0 mm 2 mps 745 mmHg 73%
    23:00 +7°C° 0 mm 2 mps 745 mmHg 73%

    Mañana, 6 Diciembre, Viernes

    Tiempo Temperatura Precipitaciones Viento Presión Humedad
    00:00 +7°C° 0 mm 2 mps 745 mmHg 73%
    01:00 +8°C° 0 mm 2 mps 745 mmHg 73%
    02:00 +8°C° 0 mm 2 mps 744 mmHg 73%
    03:00 +8°C° 0 mm 2 mps 744 mmHg 74%
    04:00 +8°C° 0 mm 2 mps 743 mmHg 75%
    05:00 +9°C° 0 mm 1 mps 744 mmHg 76%
    06:00 +9°C° 0 mm 1 mps 744 mmHg 76%
    07:00 +9°C° 0 mm 1 mps 744 mmHg 77%
    08:00 +11°C° 0 mm 1 mps 744 mmHg 75%
    09:00 +12°C° 0 mm 1 mps 744 mmHg 72%
    10:00 +13°C° 0 mm 1 mps 744 mmHg 70%
    11:00 +14°C° 0.1 mm 1 mps 743 mmHg 71%
    12:00 +14°C° 0.1 mm 1 mps 743 mmHg 72%
    13:00 +14°C° 0.1 mm 1 mps 742 mmHg 73%
    14:00 +13°C° 0.6 mm 1 mps 742 mmHg 78%
    15:00 +13°C° 0.6 mm 1 mps 742 mmHg 83%
    16:00 +12°C° 0.6 mm 1 mps 741 mmHg 89%
    17:00 +12°C° 0.9 mm 2 mps 742 mmHg 90%
    18:00 +12°C° 0.9 mm 2 mps 742 mmHg 91%
    19:00 +12°C° 0.9 mm 2 mps 742 mmHg 92%
    20:00 +12°C° 2.8 mm 2 mps 741 mmHg 93%
    21:00 +11°C° 2.8 mm 3 mps 741 mmHg 94%
    22:00 +11°C° 2.8 mm 3 mps 741 mmHg 95%
    23:00 +12°C° 3.2 mm 3 mps 741 mmHg 96%

    Pasado mañana, 7 Diciembre, Sábado

    Tiempo Temperatura Precipitaciones Viento Presión Humedad
    00:00 +12°C° 3.2 mm 3 mps 740 mmHg 96%
    01:00 +12°C° 3.2 mm 3 mps 740 mmHg 97%
    02:00 +11°C° 3.8 mm 3 mps 740 mmHg 96%
    03:00 +11°C° 3.8 mm 3 mps 739 mmHg 96%
    04:00 +11°C° 3.8 mm 3 mps 739 mmHg 95%
    05:00 +11°C° 3.2 mm 3 mps 739 mmHg 95%
    06:00 +11°C° 3.2 mm 3 mps 739 mmHg 94%
    07:00 +11°C° 3.2 mm 3 mps 739 mmHg 94%
    08:00 +12°C° 0.6 mm 2 mps 739 mmHg 90%
    09:00 +13°C° 0.6 mm 2 mps 739 mmHg 87%
    10:00 +13°C° 0.6 mm 2 mps 739 mmHg 84%
    11:00 +14°C° 0.3 mm 1 mps 739 mmHg 82%
    12:00 +15°C° 0.3 mm 1 mps 738 mmHg 80%
    13:00 +15°C° 0.3 mm 1 mps 738 mmHg 78%
    14:00 +15°C° 0.2 mm 1 mps 738 mmHg 81%
    15:00 +14°C° 0.2 mm 1 mps 738 mmHg 84%
    16:00 +13°C° 0.2 mm 1 mps 738 mmHg 87%
    17:00 +12°C° 0.1 mm 1 mps 738 mmHg 87%
    18:00 +12°C° 0.1 mm 1 mps 738 mmHg 88%
    19:00 +12°C° 0.1 mm 1 mps 738 mmHg 88%
    20:00 +11°C° 0.1 mm 1 mps 738 mmHg 88%
    21:00 +11°C° 0.1 mm 1 mps 739 mmHg 87%
    22:00 +11°C° 0.1 mm 1 mps 739 mmHg 87%
    23:00 +11°C° 0.1 mm 1 mps 739 mmHg 87%

    8 Diciembre, Domingo

    Tiempo Temperatura Precipitaciones Viento Presión Humedad
    00:00 +11°C° 0.1 mm 1 mps 739 mmHg 87%
    01:00 +11°C° 0.1 mm 1 mps 739 mmHg 87%
    02:00 +10°C° 0.1 mm 1 mps 738 mmHg 88%
    03:00 +10°C° 0.1 mm 1 mps 738 mmHg 88%
    04:00 +10°C° 0.1 mm 1 mps 738 mmHg 88%
    05:00 +10°C° 0 mm 1 mps 738 mmHg 87%
    06:00 +10°C° 0 mm 1 mps 739 mmHg 87%
    07:00 +9°C° 0 mm 1 mps 739 mmHg 87%
    08:00 +11°C° 0 mm 1 mps 739 mmHg 83%
    09:00 +12°C° 0 mm 1 mps 739 mmHg 80%
    10:00 +13°C° 0 mm 1 mps 739 mmHg 76%
    11:00 +14°C° 0 mm 1 mps 739 mmHg 75%
    12:00 +14°C° 0 mm 1 mps 739 mmHg 73%
    13:00 +14°C° 0 mm 0 mps 738 mmHg 71%
    14:00 +13°C° 0 mm 0 mps 738 mmHg 76%
    15:00 +12°C° 0 mm 0 mps 738 mmHg 81%
    16:00 +12°C° 0 mm 1 mps 738 mmHg 86%
    17:00 +10°C° 0 mm 0 mps 738 mmHg 87%
    18:00 +10°C° 0 mm 0 mps 738 mmHg 88%
    19:00 +9°C° 0 mm 0 mps 738 mmHg 90%
    20:00 +10°C° 0 mm 1 mps 738 mmHg 90%
    21:00 +10°C° 0 mm 1 mps 738 mmHg 90%
    22:00 +10°C° 0 mm 1 mps 738 mmHg 89%
    23:00 +10°C° 0 mm 1 mps 738 mmHg 89%

    9 Diciembre, Lunes

    Tiempo Temperatura Precipitaciones Viento Presión Humedad
    00:00 +9°C° 0 mm 1 mps 738 mmHg 89%
    01:00 +9°C° 0 mm 1 mps 738 mmHg 89%
    02:00 +9°C° 0 mm 1 mps 737 mmHg 89%
    03:00 +9°C° 0 mm 1 mps 737 mmHg 89%
    04:00 +9°C° 0 mm 1 mps 737 mmHg 90%
    05:00 +8°C° 0 mm 2 mps 737 mmHg 89%
    06:00 +8°C° 0 mm 2 mps 737 mmHg 88%
    07:00 +9°C° 0 mm 2 mps 737 mmHg 87%
    08:00 +9°C° 0.2 mm 2 mps 736 mmHg 87%
    09:00 +10°C° 0.2 mm 2 mps 736 mmHg 86%
    10:00 +10°C° 0.2 mm 3 mps 736 mmHg 85%
    11:00 +11°C° 0.2 mm 3 mps 735 mmHg 85%
    12:00 +11°C° 0.2 mm 3 mps 735 mmHg 85%
    13:00 +11°C° 0.2 mm 3 mps 734 mmHg 85%
    14:00 +11°C° 0.4 mm 3 mps 734 mmHg 87%
    15:00 +11°C° 0.4 mm 3 mps 734 mmHg 89%
    16:00 +12°C° 0.4 mm 2 mps 733 mmHg 91%
    17:00 +12°C° 0.2 mm 2 mps 733 mmHg 91%
    18:00 +10°C° 0.2 mm 2 mps 733 mmHg 90%
    19:00 +10°C° 0.2 mm 2 mps 733 mmHg 90%
    20:00 +10°C° 1 mm 2 mps 733 mmHg 91%
    21:00 +10°C° 1 mm 3 mps 733 mmHg 92%
    22:00 +10°C° 1 mm 3 mps 733 mmHg 93%
    23:00 +10°C° 3.9 mm 4 mps 733 mmHg 94%

    10 Diciembre, Martes

    Tiempo Temperatura Precipitaciones Viento Presión Humedad
    00:00 +10°C° 3.9 mm 4 mps 732 mmHg 94%
    01:00 +9°C° 3.9 mm 5 mps 732 mmHg 94%
    02:00 +8°C° 2.4 mm 4 mps 732 mmHg 92%
    03:00 +7°C° 2.4 mm 4 mps 732 mmHg 91%
    04:00 +8°C° 2.4 mm 3 mps 733 mmHg 89%
    05:00 +7°C° 0.1 mm 3 mps 733 mmHg 88%
    06:00 +7°C° 0.1 mm 3 mps 734 mmHg 87%
    07:00 +5°C° 0.1 mm 3 mps 734 mmHg 86%
    08:00 +7°C° 0 mm 3 mps 735 mmHg 83%
    09:00 +7°C° 0 mm 4 mps 736 mmHg 79%
    10:00 +10°C° 0 mm 4 mps 737 mmHg 75%
    11:00 +9°C° 0 mm 5 mps 737 mmHg 73%
    12:00 +9°C° 0 mm 5 mps 737 mmHg 71%
    13:00 +9°C° 0 mm 6 mps 737 mmHg 69%
    14:00 +8°C° 0 mm 5 mps 738 mmHg 70%
    15:00 +7°C° 0 mm 5 mps 738 mmHg 72%
    16:00 +6°C° 0 mm 4 mps 739 mmHg 73%
    17:00 +6°C° 0 mm 4 mps 739 mmHg 73%
    18:00 +5°C° 0 mm 4 mps 739 mmHg 73%
    19:00 +4°C° 0 mm 4 mps 740 mmHg 73%
    20:00 +4°C° 0 mm 4 mps 740 mmHg 72%
    21:00 +4°C° 0 mm 4 mps 740 mmHg 72%
    22:00 +3°C° 0 mm 4 mps 740 mmHg 71%
    23:00 +3°C° 0 mm 3 mps 740 mmHg 70%
    Mostrar más